Regional Weather Roundup
Issued by NWS

Home | Current Version | Previous Version | Text Only | Print | Product List | Glossary On
Versions: 1 2 3 4 5 6 7 8 9 10 11 12 13 14 15 16 17 18 19 20 21 22 23 24 25 26 27
000
ASUS42 KFFC 192003
RWRGA
WEATHER ROUNDUP FOR GEORGIA
NATIONAL WEATHER SERVICE PEACHTREE CITY GA
400 PM EDT SAT APR 19 2014

NOTE: "FAIR" INDICATES FEW OR NO CLOUDS BELOW 12,000 FEET WITH NO
SIGNIFICANT WEATHER AND/OR OBSTRUCTIONS TO VISIBILITY.

* = USE WITH CAUTION. THE STATIONS MARKED WITH AN ASTERISK MAY NOT
REPORT WEATHER SUCH AS PRECIPITATION, FOG, OR THUNDER AND ARE NOT
QUALITY CONTROLLED BY NWS.

THE REMARK "TC" DENOTES TEMPERATURE READING IN DEGREES CELSIUS.

GAZ001>058-192100-
NORTH GEORGIA

CITY           SKY/WX    TMP DP  RH WIND       PRES   REMARKS
ATLANTA        LGT RAIN  60  57  89 NE18      30.09S FOG
ATHENS         LGT RAIN  56  53  90 NE13G23   30.08S FOG
CHAMBLEE       CLOUDY    59  54  83 NE9       30.10S HAZE
PEACHTREE CITY LGT RAIN  61  54  77 NE13G18   30.08F
ROME           CLOUDY    67  45  45 N12       30.11R
WEST ATLANTA   CLOUDY    63  53  70 NE16G24   30.09F
GAINESVILLE    LGT RAIN  57  54  89 NE12      30.13R FOG
CARTERSVILLE   CLOUDY    63  54  72 NE8       30.11F


CITY           SKY/WX    TMP DP  RH WIND       PRES   REMARKS
DALTON*        CLOUDY    61  46  59 N13G18    30.13S
LAWRENCEVILLE* LGT RAIN N/A N/A N/A NE9G18    30.09F FOG
MARIETTA       CLOUDY    63  54  72 VRB7      30.10F
KENNESAW*      PTSUNNY   63  52  67 NE12G17   30.12S
$$

GAZ059>098-102>109-192100-
CENTRAL GEORGIA

CITY           SKY/WX    TMP DP  RH WIND       PRES   REMARKS
AUGUSTA-BUSH   CLOUDY    59  52  77 NE15G26   30.02F
AUGUSTA-DANIEL CLOUDY    59  53  80 N18G29    30.03S
COLUMBUS       CLOUDY    62  53  72 NE8G21    30.04F
MACON          CLOUDY    59  53  80 NE13      30.03R
ROBINS AFB     CLOUDY    60  53  79 NE10G17   30.02R


CITY           SKY/WX    TMP DP  RH WIND       PRES   REMARKS
LAGRANGE*      CLOUDY    64  56  74 NE9       30.07S
SYLVANIA*      CLOUDY    60  56  88 NE12      29.98S
MILLEDGEVILLE* CLOUDY    61  46  59 NE7G16    30.04S
$$

GAZ099>101-110>166-192100-
SOUTH GEORGIA

CITY           SKY/WX    TMP DP  RH WIND       PRES   REMARKS
SAVANNAH       CLOUDY    63  58  83 N12       29.94F
VALDOSTA       CLOUDY    62  56  80 N7        29.94F
ALMA           CLOUDY    59  55  87 N7        29.95S
ST SIMONS      RAIN      63  61  93 N15G21    29.90F FOG
FT STEWART     DRIZZLE   61  61 100 NE9       29.92F
ALBANY         LGT RAIN  58  56  93 N7        30.02F FOG
HUNTER AFB     CLOUDY    63  60  90 NE5       29.91F
MOODY AFB      CLOUDY    58  58  99 N14       29.94F
BRUNSWICK      CLOUDY    63  63 100 N7        29.92S


CITY           SKY/WX    TMP DP  RH WIND       PRES   REMARKS
BAINBRIDGE*    CLOUDY    63  61  94 N9        30.00F
MOULTRIE*      CLOUDY    57  57 100 N8G16     29.97F FOG
VIDALIA*       CLOUDY    57  55  94 NE13G18   29.98S
DOUGLAS*       RAIN      59  55  88 NE13      29.98S
$$



USA.gov is the U.S. government's official web portal to all federal, state and local government web resources and services.